This demonstration page uses our WeatherBlox Daily Observations layout. Learn more.

Left ArrowRight Arrow

44.8408, -93.29828

Hourly Observations for August 15, 2022

Temp ( °F °C ) Dew Point ( °F °C ) Humidity (%) Winds ( mph kmh ) Pressure ( in mb ) Visibility ( mi km ) Precip ( " mm )
12:53 am 00:53 Clear 65 18.3 58 14.4 78 78 Calm 30.07 1018 10 16 0.00 0.00
1:53 am 01:53 Mostly Clear 64 17.8 59 15 84 84 Calm 30.07 1018 10 16 0.00 0.00
2:53 am 02:53 Clear 62 16.7 58 14.4 86 86 Calm 30.07 1018 10 16 0.00 0.00
3:53 am 03:53 Clear 61 16.1 58 14.4 90 90 Calm 30.08 1019 10 16 0.00 0.00
4:53 am 04:53 Clear 61 16.1 58 14.4 90 90 Calm 30.09 1019 10 16 0.00 0.00
5:53 am 05:53 Clear 61 16.1 58 14.4 90 90 Calm 30.09 1019 10 16 0.00 0.00
6:53 am 06:53 Mostly Sunny 62 16.7 59 15 90 90 SE 5 7 30.09 1019 10 16 0.00 0.00
7:53 am 07:53 Mostly Sunny 63 17.2 60 15.6 90 90 SE 6 9 30.09 1019 10 16 0.00 0.00
8:53 am 08:53 Partly Cloudy 67 19.4 61 16.1 81 81 SSE 8 13 30.10 1019 10 16 0.00 0.00
9:53 am 09:53 Mostly Cloudy 69 20.6 62 16.7 78 78 SSE 7 11 30.10 1019 10 16 0.00 0.00
10:15 am 10:15 Mostly Cloudy 70 21.1 62 16.7 76 76 SSE 8 13 30.08 1019 10 16 0.00 0.00
10:53 am 10:53 Cloudy 70 21.1 61 16.1 73 73 S 7 11 30.09 1019 10 16 0.00 0.00
11:01 am 11:01 Cloudy 70 21.1 62 16.7 76 76 SE 6 9 30.08 1018 10 16 0.00 0.00
11:53 am 11:53 Cloudy 71 21.7 61 16.1 70 70 SSE 8 13 30.10 1019 10 16 0.00 0.00
12:53 pm 12:53 Cloudy 72 22.2 61 16.1 68 68 ESE 7 11 30.10 1019 10 16 0.00 0.00
1:53 pm 13:53 Mostly Cloudy 73 22.8 62 16.7 68 68 ESE 7 11 30.11 1020 10 16 0.00 0.00
2:53 pm 14:53 Mostly Cloudy 74 23.3 60 15.6 62 62 SSE 7 11 30.11 1020 10 16 0.00 0.00
3:53 pm 15:53 Mostly Cloudy 76 24.4 61 16.1 60 60 SSE 7 11 30.10 1019 10 16 0.00 0.00
4:53 pm 16:53 Mostly Cloudy 75 23.9 61 16.1 62 62 SSE 8 13 30.10 1019 10 16 0.00 0.00
5:53 pm 17:53 Mostly Cloudy 75 23.9 61 16.1 62 62 S 5 7 30.09 1019 10 16 0.00 0.00
6:53 pm 18:53 Mostly Cloudy 75 23.9 61 16.1 62 62 S 8 13 30.08 1019 10 16 0.00 0.00
7:53 pm 19:53 Partly Cloudy 74 23.3 61 16.1 64 64 SE 5 7 30.09 1019 10 16 0.00 0.00
8:53 pm 20:53 Partly Cloudy 72 22.2 62 16.7 71 71 SSE 5 7 30.10 1019 10 16 0.00 0.00
9:53 pm 21:53 Mostly Clear 72 22.2 62 16.7 71 71 S 5 7 30.10 1019 10 16 0.00 0.00
10:53 pm 22:53 Mostly Clear 70 21.1 61 16.1 73 73 SW 3 6 30.11 1020 10 16 0.00 0.00
11:53 pm 23:53 Mostly Clear 68 20 61 16.1 78 78 SE 5 7 30.12 1020 10 16 0.00 0.00

Powered by AerisWeather